Weather History for Oscoda, MI

Change the Weather History Date:

Sunday, October 14, 2012

  Actual Average Record
Temperature  
Mean Temperature 56 °F -  
Max Temperature 63 °F 55 °F 75 °F (2000)
Min Temperature 49 °F 38 °F 26 °F (2002)
Degree Days  
Heating Degree Days 9    
Growing Degree Days 6 (Base 50)    
Moisture  
Dew Point 55 °F    
Average Humidity 95    
Maximum Humidity 99    
Minimum Humidity 85    
Precipitation  
Precipitation 0.96 in - - ()
Sea Level Pressure  
Sea Level Pressure 29.58 in    
Wind  
Wind Speed 5 mph (South)    
Max Wind Speed 21 mph    
Max Gust Speed 32 mph    
Visibility 6 miles    
Events Rain    
Averages and records for this station are not official NWS values.
T = Trace of Precipitation, MM = Missing Value Source: NWS Daily Summary

Daily Weather History Graph

Daily Weather History Graph

Search for Another Location

Airport:

Trip Planner

Search our weather history database for the weather conditions in past years. The results will help you decide how hot, cold, wet, or windy it might be!

Date:

Astronomy

Oct. 14, 2012 Rise Set
Actual Time 7:48 AM EDT 6:50 PM EDT
Civil Twilight 7:18 AM EDT 7:19 PM EDT
Nautical Twilight 6:45 AM EDT 7:53 PM EDT
Astronomical Twilight 6:11 AM EDT 8:26 PM EDT
Moon 6:45 AM EDT (10/14) 6:08 PM EDT (10/14)
Length of Visible Light 12h 00m
Length of Day
11h 02m
Waning Crescent, 1% of the Moon is Illuminated
Oct 14
Waning Crescent
Oct 15
New
Oct 21
First Quarter
Oct 29
Full
Nov 6
Last Quarter

Hourly Weather History & Observations

Time (EDT) Temp. Dew Point Humidity Pressure Visibility Wind Dir Wind Speed Gust Speed Precip Events Conditions
12:13 AM 49.5 °F 48.7 °F 97% 29.78 in 4.0 mi SSW 6.9 mph - N/A Rain Heavy Rain
12:33 AM 49.5 °F 48.7 °F 97% 29.78 in 5.0 mi SW 4.6 mph - 0.01 in   Overcast
12:53 AM 49.6 °F 48.7 °F 97% 29.79 in 5.0 mi Calm Calm - 0.01 in   Overcast
1:13 AM 49.6 °F 49.1 °F 98% 29.78 in 5.0 mi Calm Calm - N/A   Overcast
1:33 AM 49.6 °F 48.9 °F 97% 29.79 in 5.0 mi Calm Calm - N/A Rain Light Rain
1:53 AM 50.0 °F 49.3 °F 97% 29.78 in 4.0 mi Calm Calm - N/A Rain Light Rain
2:13 AM 50.2 °F 49.5 °F 97% 29.78 in 7.0 mi Calm Calm - N/A   Overcast
2:33 AM 50.2 °F 49.3 °F 97% 29.78 in 7.0 mi Calm Calm - N/A   Overcast
2:53 AM 50.2 °F 49.3 °F 97% 29.78 in 5.0 mi Calm Calm - N/A   Overcast
3:13 AM 50.2 °F 49.5 °F 97% 29.78 in 5.0 mi Calm Calm - N/A   Overcast
3:33 AM 50.2 °F 49.5 °F 97% 29.78 in 4.0 mi Calm Calm - N/A   Overcast
3:53 AM 50.4 °F 49.6 °F 97% 29.78 in 3.0 mi Calm Calm - N/A   Overcast
4:13 AM 50.4 °F 50.0 °F 99% 29.77 in 3.0 mi Calm Calm - N/A   Overcast
4:33 AM 50.5 °F 50.0 °F 98% 29.76 in 4.0 mi Calm Calm - N/A   Overcast
4:52 AM 50.2 °F 49.6 °F 98% 29.78 in 3.0 mi SSE 4.6 mph - N/A   Overcast
5:13 AM 50.9 °F 50.4 °F 98% 29.78 in 4.0 mi South 3.5 mph - N/A   Overcast
5:33 AM 51.1 °F 50.5 °F 98% 29.78 in 4.0 mi Calm Calm - N/A   Overcast
5:52 AM 51.1 °F 50.4 °F 97% 29.77 in 3.0 mi Calm Calm - N/A   Overcast
6:13 AM 51.1 °F 50.5 °F 98% 29.76 in 3.0 mi Calm Calm - N/A   Overcast
6:33 AM 51.1 °F 50.5 °F 98% 29.76 in 3.0 mi Calm Calm - N/A   Overcast
6:53 AM 51.3 °F 50.7 °F 98% 29.75 in 2.0 mi Calm Calm - 0.01 in Rain Light Rain
7:13 AM 51.8 °F 51.3 °F 98% 29.75 in 2.0 mi East 3.5 mph - 0.05 in Rain Heavy Rain
7:33 AM 52.2 °F 51.8 °F 99% 29.75 in 2.5 mi Calm Calm - 0.11 in Rain Rain
7:53 AM 52.7 °F 52.2 °F 98% 29.73 in 4.0 mi ESE 3.5 mph - 0.13 in Rain Light Rain
8:13 AM 53.1 °F 52.7 °F 99% 29.73 in 2.5 mi Calm Calm - 0.03 in Rain Rain
8:33 AM 53.1 °F 52.5 °F 98% 29.73 in 0.8 mi Calm Calm - 0.03 in   Heavy Drizzle
8:53 AM 54.5 °F 53.8 °F 97% 29.72 in 2.0 mi ESE 5.8 mph - 0.15 in Rain Heavy Rain
9:13 AM 54.5 °F 54.0 °F 98% 29.72 in 5.0 mi East 4.6 mph - 0.02 in Rain Rain
9:33 AM 54.5 °F 54.0 °F 98% 29.71 in 3.0 mi East 4.6 mph - 0.06 in Rain Rain
9:53 AM 55.0 °F 54.5 °F 98% 29.69 in 3.0 mi East 4.6 mph - 0.08 in Rain Light Rain
10:13 AM 55.0 °F 54.5 °F 98% 29.67 in 2.0 mi East 4.6 mph - 0.01 in Rain Light Rain
10:33 AM 55.8 °F 55.4 °F 99% 29.67 in 2.5 mi Calm Calm - 0.01 in Rain Light Rain
10:53 AM 56.7 °F 56.1 °F 98% 29.65 in 2.0 mi SE 3.5 mph - 0.04 in Rain Light Rain
11:13 AM 57.2 °F 56.5 °F 97% 29.63 in 1.2 mi Calm Calm - N/A Rain Light Rain
11:33 AM 60.8 °F 60.3 °F 98% 29.61 in 2.0 mi South 6.9 mph - 0.04 in Rain Rain
11:53 AM 61.9 °F 61.3 °F 98% 29.58 in 2.0 mi SSE 6.9 mph - 0.08 in Rain Heavy Rain
12:13 PM 62.6 °F 61.7 °F 97% 29.57 in 2.5 mi South 9.2 mph - 0.01 in Rain Light Rain
12:33 PM 62.8 °F 62.1 °F 97% 29.56 in 3.0 mi South 12.7 mph 19.6 mph 0.02 in Rain Light Rain
12:53 PM 63.1 °F 61.7 °F 95% 29.55 in 3.0 mi South 13.8 mph 20.7 mph 0.03 in Rain Light Rain
1:13 PM 63.5 °F 61.7 °F 94% 29.54 in 4.0 mi South 16.1 mph 20.7 mph 0.01 in Rain Light Rain
1:32 PM 63.5 °F 61.3 °F 93% 29.53 in 4.0 mi South 13.8 mph 27.6 mph 0.01 in   Overcast
1:53 PM 63.5 °F 61.0 °F 91% 29.52 in 5.0 mi South 17.3 mph 31.1 mph 0.01 in Rain Light Rain
2:13 PM 63.3 °F 60.8 °F 91% 29.50 in 5.0 mi South 20.7 mph 28.8 mph N/A   Overcast
2:32 PM 63.1 °F 60.8 °F 92% 29.49 in 5.0 mi South 17.3 mph 31.1 mph N/A   Overcast
2:53 PM 63.0 °F 60.4 °F 91% 29.48 in 7.0 mi South 15.0 mph 29.9 mph N/A   Overcast
3:13 PM 63.9 °F 60.4 °F 89% 29.46 in 7.0 mi South 16.1 mph 26.5 mph N/A   Overcast
3:33 PM 63.7 °F 59.4 °F 86% 29.45 in 10.0 mi SSW 18.4 mph 25.3 mph N/A   Overcast
3:53 PM 63.7 °F 59.0 °F 85% 29.45 in 10.0 mi SSW 18.4 mph 29.9 mph N/A   Overcast
4:13 PM 62.8 °F 58.6 °F 86% 29.44 in 10.0 mi SSW 11.5 mph 19.6 mph N/A   Overcast
4:33 PM 62.6 °F 58.5 °F 86% 29.43 in 10.0 mi WSW 11.5 mph 18.4 mph N/A Rain Light Rain
4:53 PM 61.7 °F 59.7 °F 93% 29.43 in 1.8 mi SSW 8.1 mph 13.8 mph 0.21 in Rain Light Rain
5:13 PM 62.2 °F 59.2 °F 90% 29.43 in 7.0 mi WSW 10.4 mph 18.4 mph N/A Rain Light Rain
5:33 PM 62.2 °F 59.2 °F 90% 29.41 in 2.5 mi SSW 18.4 mph 32.2 mph 0.06 in Rain Rain
5:53 PM 61.7 °F 59.2 °F 91% 29.42 in 2.0 mi SSW 17.3 mph 32.2 mph 0.16 in Rain Rain
6:13 PM 62.2 °F 58.1 °F 86% 29.40 in 10.0 mi SSW 16.1 mph 25.3 mph N/A Rain Light Rain
6:33 PM 61.7 °F 57.4 °F 86% 29.40 in 10.0 mi SSW 13.8 mph - N/A   Overcast
6:53 PM 60.4 °F 57.6 °F 90% 29.39 in 10.0 mi South 9.2 mph - N/A   Scattered Clouds
7:13 PM 59.9 °F 57.7 °F 93% 29.38 in 10.0 mi South 5.8 mph - N/A   Clear
7:33 PM 60.1 °F 57.7 °F 92% 29.37 in 10.0 mi SSW 9.2 mph - N/A   Clear
7:53 PM 60.3 °F 57.4 °F 90% 29.36 in 10.0 mi SSW 8.1 mph - N/A   Scattered Clouds
8:13 PM 60.4 °F 57.7 °F 91% 29.37 in 10.0 mi South 11.5 mph - N/A Rain Light Rain
8:33 PM 60.6 °F 56.5 °F 86% 29.36 in 10.0 mi South 15.0 mph 21.9 mph N/A   Mostly Cloudy
8:53 PM 59.2 °F 56.7 °F 91% 29.36 in 5.0 mi SSW 9.2 mph - 0.03 in Rain Rain
9:13 PM 58.8 °F 57.2 °F 94% 29.34 in 10.0 mi South 9.2 mph - 0.01 in Rain Light Rain
9:33 PM 58.6 °F 57.4 °F 96% 29.34 in 10.0 mi South 11.5 mph - 0.02 in Rain Light Rain
9:53 PM 59.0 °F 57.4 °F 94% 29.33 in 10.0 mi SSW 10.4 mph 16.1 mph 0.02 in Rain Light Rain
10:13 PM 58.1 °F 56.3 °F 94% 29.32 in 10.0 mi South 12.7 mph 18.4 mph N/A Rain Rain
10:33 PM 57.2 °F 55.6 °F 94% 29.32 in 10.0 mi SSW 10.4 mph - N/A Rain Light Rain
10:53 PM 57.2 °F 55.4 °F 94% 29.31 in 10.0 mi SSW 10.4 mph - N/A Rain Light Rain
11:13 PM 57.2 °F 55.6 °F 94% 29.30 in 10.0 mi SSW 10.4 mph - N/A Rain Light Rain
11:33 PM 56.8 °F 55.6 °F 96% 29.30 in 10.0 mi SSW 10.4 mph - N/A Rain Light Rain
11:53 PM 56.8 °F 55.8 °F 96% 29.30 in 7.0 mi WSW 16.1 mph 23.0 mph N/A Rain Rain